CRUISE,DATE,TIME,LAT,LONG,ATM_PRE,FCO2_WAT,EQ_TMP,SST,SSS
ARGAU-1i,8/8/2001,19:30,-39.48,-59,1017.4,346.1,11.15,10.64,33.61
ARGAU-1i,8/8/2001,19:40,-39.51,-59.04,1017.5,352.0,10.55,9.84,33.61
ARGAU-1i,8/8/2001,20:05,-39.58,-59.15,1018.0,361.1,10.48,10.01,33.59
ARGAU-1i,8/8/2001,20:16,-39.61,-59.19,1017.8,362.1,10.49,10.02,33.60
ARGAU-1i,8/8/2001,20:26,-39.63,-59.22,1018.2,359.3,10.59,10.13,33.60
ARGAU-1i,8/8/2001,20:36,-39.66,-59.26,1018.3,355.0,10.56,10.08,33.61
ARGAU-1i,8/8/2001,20:47,-39.69,-59.31,1018.4,354.9,10.54,10.05,33.61
ARGAU-1i,8/8/2001,20:57,-39.72,-59.35,1018.6,358.1,10.52,10.06,33.61
ARGAU-1i,8/8/2001,21:16,-39.75,-59.44,1018.9,354.2,10.63,10.18,33.64
ARGAU-1i,8/8/2001,21:26,-39.76,-59.5,1019.1,352.0,10.73,10.28,33.68
ARGAU-1i,8/8/2001,21:37,-39.77,-59.56,1019.3,351.1,10.79,10.34,33.71
ARGAU-1i,8/8/2001,21:47,-39.8,-59.6,1019.4,349.1,10.85,10.33,33.74
ARGAU-1i,8/8/2001,21:57,-39.84,-59.63,1019.7,353.0,10.72,10.24,33.67
ARGAU-1i,8/8/2001,22:08,-39.88,-59.66,1019.8,354.4,10.84,10.40,33.72
ARGAU-1i,8/8/2001,22:27,-39.94,-59.72,1020.4,340.6,10.86,10.33,33.72
ARGAU-1i,8/8/2001,22:37,-39.98,-59.75,1020.6,355.7,10.78,10.34,33.71
ARGAU-1i,8/8/2001,22:47,-40.02,-59.79,1020.7,341.4,10.88,10.38,33.69
ARGAU-1i,8/8/2001,22:58,-40.05,-59.82,1021.0,352.8,10.73,10.22,33.67
ARGAU-1i,8/8/2001,23:08,-40.09,-59.86,1021.3,357.1,10.71,10.24,33.65
ARGAU-1i,8/8/2001,23:18,-40.12,-59.89,1021.3,347.3,10.82,10.38,33.63
ARGAU-1i,8/8/2001,23:37,-40.19,-59.96,1021.6,356.6,10.69,10.17,33.62
ARGAU-1i,8/8/2001,23:48,-40.23,-59.99,1021.8,361.1,10.63,10.15,33.60
ARGAU-1i,8/8/2001,23:58,-40.26,-60.03,1022.1,358.9,10.67,10.18,33.58
ARGAU-1i,8/9/2001,0:08,-40.3,-60.06,1022.3,359.9,10.67,10.16,33.59
ARGAU-1i,8/9/2001,0:18,-40.33,-60.11,1022.4,361.4,10.64,10.16,33.59
ARGAU-1i,8/9/2001,0:29,-40.36,-60.15,1022.8,360.8,10.70,10.27,33.63
ARGAU-1i,8/9/2001,0:48,-40.42,-60.23,1023.3,344.0,10.86,10.36,33.60
ARGAU-1i,8/9/2001,0:58,-40.44,-60.28,1023.6,354.8,10.77,10.27,33.60
ARGAU-1i,8/9/2001,1:09,-40.48,-60.32,1023.6,359.9,10.60,10.06,33.59
ARGAU-1i,8/9/2001,1:19,-40.51,-60.36,1023.8,366.5,10.52,10.03,33.57
ARGAU-1i,8/9/2001,1:29,-40.55,-60.4,1023.9,359.7,10.53,10.05,33.58
ARGAU-1i,8/9/2001,1:39,-40.58,-60.44,1024.0,356.6,10.58,10.11,33.59
ARGAU-1i,8/9/2001,2:29,-40.74,-60.65,1024.7,361.8,10.58,10.08,33.60
ARGAU-1i,8/9/2001,2:39,-40.78,-60.69,1024.8,364.4,10.54,10.03,33.58
ARGAU-1i,8/9/2001,2:49,-40.81,-60.74,1024.9,364.1,10.53,10.04,33.58
ARGAU-1i,8/9/2001,3:00,-40.84,-60.78,1025.0,362.8,10.54,10.04,33.59
ARGAU-1i,8/9/2001,3:10,-40.88,-60.82,1025.3,360.5,10.54,10.05,33.60
ARGAU-1i,8/9/2001,3:20,-40.91,-60.87,1025.4,358.7,10.55,10.06,33.60
ARGAU-1i,8/9/2001,3:39,-40.97,-60.95,1025.8,357.3,10.57,10.08,33.62
ARGAU-1i,8/9/2001,3:50,-41,-61,1025.9,351.3,10.63,10.17,33.67
ARGAU-1i,8/9/2001,4:00,-41.04,-61.04,1026.1,343.3,10.69,10.19,33.73
ARGAU-1i,8/9/2001,4:10,-41.07,-61.09,1026.4,342.8,10.65,10.16,33.78
ARGAU-1i,8/9/2001,4:21,-41.1,-61.13,1026.5,341.3,10.67,10.20,33.82
ARGAU-1i,8/9/2001,4:31,-41.13,-61.18,1026.6,341.3,10.68,10.19,33.87
ARGAU-1i,8/9/2001,4:50,-41.19,-61.26,1026.9,349.2,10.75,10.28,33.89
ARGAU-1i,8/9/2001,5:00,-41.23,-61.3,1027.1,351.8,10.76,10.30,33.87
ARGAU-1i,8/9/2001,5:11,-41.26,-61.34,1027.3,351.2,10.79,10.32,33.85
ARGAU-1i,8/9/2001,5:21,-41.29,-61.39,1027.7,350.2,10.79,10.31,33.84
ARGAU-1i,8/9/2001,5:32,-41.33,-61.43,1027.9,349.0,10.77,10.30,33.82
ARGAU-1i,8/9/2001,5:42,-41.36,-61.47,1028.0,349.3,10.76,10.29,33.82
ARGAU-1i,8/9/2001,6:01,-41.42,-61.55,1028.2,353.0,10.74,10.25,33.79
ARGAU-1i,8/9/2001,6:11,-41.45,-61.6,1028.1,352.7,10.71,10.23,33.78
ARGAU-1i,8/9/2001,6:22,-41.49,-61.64,1028.3,353.6,10.69,10.21,33.76
ARGAU-1i,8/9/2001,6:32,-41.52,-61.68,1028.4,356.7,10.67,10.19,33.75
ARGAU-1i,8/9/2001,6:42,-41.55,-61.72,1028.4,359.5,10.65,10.18,33.75
ARGAU-1i,8/9/2001,6:53,-41.58,-61.76,1028.5,359.7,10.65,10.18,33.77
ARGAU-1i,8/9/2001,7:12,-41.65,-61.84,1028.8,355.8,10.63,10.16,33.84
ARGAU-1i,8/9/2001,7:22,-41.68,-61.88,1029.1,355.4,10.62,10.14,33.87
ARGAU-1i,8/9/2001,7:32,-41.71,-61.92,1029.2,353.2,10.58,10.10,33.89
ARGAU-1i,8/9/2001,7:42,-41.74,-61.97,1029.4,340.6,10.54,10.05,34.00
ARGAU-1i,8/9/2001,7:53,-41.78,-62.01,1029.6,323.5,10.49,10.02,34.09
ARGAU-1i,8/9/2001,8:03,-41.81,-62.05,1029.7,337.2,10.52,10.07,34.00
ARGAU-1i,8/9/2001,8:22,-41.87,-62.13,1030.1,351.8,10.57,10.10,33.92
ARGAU-1i,8/9/2001,8:33,-41.91,-62.17,1030.2,360.1,10.60,10.15,33.84
ARGAU-1i,8/9/2001,8:43,-41.94,-62.21,1030.4,358.2,10.60,10.13,33.85
ARGAU-1i,8/9/2001,8:53,-41.98,-62.25,1030.5,360.1,10.59,10.12,33.89
ARGAU-1i,8/9/2001,9:04,-42.01,-62.29,1030.6,367.4,10.59,10.13,33.90
ARGAU-1i,8/9/2001,9:14,-42.05,-62.33,1030.8,369.4,10.60,10.14,33.87
ARGAU-1i,8/9/2001,10:00,-42.2,-62.51,1031.3,377.7,10.63,10.14,33.87
ARGAU-1i,8/9/2001,10:10,-42.24,-62.55,1031.4,375.9,10.61,10.13,33.86
ARGAU-1i,8/9/2001,10:20,-42.27,-62.6,1031.5,376.7,10.60,10.12,33.85
ARGAU-1i,8/9/2001,10:31,-42.31,-62.64,1031.7,373.5,10.60,10.12,33.84
ARGAU-1i,8/9/2001,10:41,-42.34,-62.68,1031.8,377.8,10.61,10.12,33.80
ARGAU-1i,8/9/2001,10:51,-42.38,-62.72,1031.8,376.0,10.60,10.11,33.82
ARGAU-1i,8/9/2001,11:10,-42.44,-62.8,1032.2,364.4,10.55,10.06,33.82
ARGAU-1i,8/9/2001,11:20,-42.48,-62.84,1032.3,360.0,10.55,10.05,33.81
ARGAU-1i,8/9/2001,11:31,-42.51,-62.89,1032.3,354.7,10.50,9.97,33.76
ARGAU-1i,8/9/2001,11:41,-42.54,-62.94,1032.4,353.0,10.37,9.84,33.70
ARGAU-1i,8/9/2001,11:52,-42.57,-62.99,1032.5,357.8,10.24,9.70,33.67
ARGAU-1i,8/9/2001,12:02,-42.6,-63.03,1032.5,362.2,10.14,9.62,33.65
ARGAU-1i,8/9/2001,12:21,-42.66,-63.12,1032.7,361.7,10.05,9.52,33.62
ARGAU-1i,8/9/2001,12:31,-42.69,-63.17,1032.8,362.3,9.99,9.47,33.61
ARGAU-1i,8/9/2001,12:42,-42.72,-63.22,1033.0,364.2,9.93,9.41,33.61
ARGAU-1i,8/9/2001,12:52,-42.76,-63.26,1033.1,364.5,9.89,9.36,33.62
ARGAU-1i,8/9/2001,13:02,-42.79,-63.3,1033.1,362.2,9.81,9.25,33.64
ARGAU-1i,8/9/2001,13:13,-42.82,-63.32,1033.2,363.2,9.65,9.14,33.69
ARGAU-1i,8/9/2001,13:32,-42.87,-63.38,1033.3,365.0,9.64,9.16,33.71
ARGAU-1i,8/9/2001,13:42,-42.9,-63.42,1033.4,362.4,9.75,9.27,33.65
ARGAU-1i,8/9/2001,13:53,-42.93,-63.45,1033.4,358.2,9.77,9.23,33.64
ARGAU-1i,8/9/2001,14:03,-42.97,-63.49,1033.4,360.9,9.63,9.10,33.69
ARGAU-1i,8/9/2001,14:13,-43,-63.53,1033.4,361.6,9.66,9.16,33.68
ARGAU-1i,8/9/2001,14:23,-43.04,-63.56,1033.4,360.4,9.75,9.26,33.63
ARGAU-1i,8/9/2001,14:43,-43.1,-63.63,1033.7,358.3,9.72,9.21,33.59
ARGAU-1i,8/9/2001,14:53,-43.14,-63.67,1033.7,363.4,9.67,9.12,33.57
ARGAU-1i,8/9/2001,15:03,-43.17,-63.7,1033.6,376.4,9.62,9.07,33.56
ARGAU-1i,8/9/2001,15:14,-43.21,-63.74,1033.6,383.1,9.52,8.97,33.52
ARGAU-1i,8/9/2001,15:24,-43.24,-63.78,1033.5,392.6,9.44,8.89,33.50
ARGAU-1i,8/9/2001,15:34,-43.28,-63.81,1033.6,400.3,9.35,8.81,33.48
ARGAU-1i,8/9/2001,15:53,-43.34,-63.88,1033.3,404.2,9.29,8.75,33.48
ARGAU-1i,8/9/2001,16:03,-43.38,-63.92,1033.2,404.5,9.26,8.72,33.47
ARGAU-1i,8/9/2001,16:14,-43.42,-63.96,1033.2,407.4,9.21,8.67,33.47
ARGAU-1i,8/9/2001,16:24,-43.45,-64,1033.0,412.7,9.15,8.60,33.46
ARGAU-1i,8/9/2001,16:34,-43.49,-64.04,1032.9,419.5,9.10,8.56,33.45
ARGAU-1i,8/9/2001,16:44,-43.52,-64.07,1032.8,424.6,9.07,8.54,33.45
ARGAU-1i,8/9/2001,17:31,-43.69,-64.26,1032.4,414.7,8.98,8.42,33.42
ARGAU-1i,8/9/2001,17:41,-43.73,-64.3,1032.4,414.5,8.94,8.39,33.42
ARGAU-1i,8/9/2001,17:51,-43.77,-64.34,1032.3,409.6,8.90,8.33,33.42
ARGAU-1i,8/9/2001,18:02,-43.81,-64.38,1032.3,411.9,8.81,8.23,33.42
ARGAU-1i,8/9/2001,18:12,-43.84,-64.43,1032.3,416.7,8.74,8.18,33.42
ARGAU-1i,8/9/2001,18:22,-43.88,-64.47,1032.3,418.1,8.73,8.19,33.42
ARGAU-1i,8/9/2001,18:42,-43.95,-64.55,1032.0,404.3,8.87,8.32,33.44
ARGAU-1i,8/9/2001,18:52,-43.99,-64.59,1031.9,402.9,8.82,8.25,33.43
ARGAU-1i,8/9/2001,19:02,-44.04,-64.63,1031.7,401.4,8.75,8.20,33.45
ARGAU-1i,8/9/2001,19:12,-44.08,-64.67,1031.6,400.3,8.76,8.22,33.45
ARGAU-1i,8/9/2001,19:23,-44.12,-64.71,1031.4,399.2,8.78,8.23,33.45
ARGAU-1i,8/9/2001,19:33,-44.16,-64.74,1031.5,390.1,8.71,8.15,33.48
ARGAU-1i,8/9/2001,19:52,-44.21,-64.82,1030.5,390.3,8.74,8.18,33.48
ARGAU-1i,8/9/2001,20:03,-44.19,-64.83,1030.5,388.6,8.72,8.19,33.49
ARGAU-1i,8/9/2001,20:13,-44.23,-64.87,1030.6,390.1,8.77,8.25,33.49
ARGAU-1i,8/9/2001,20:23,-44.28,-64.89,1030.5,389.7,8.83,8.31,33.50
ARGAU-1i,8/9/2001,20:33,-44.32,-64.92,1030.2,388.5,8.89,8.36,33.50
ARGAU-1i,8/9/2001,20:44,-44.37,-64.94,1030.0,388.9,8.93,8.40,33.50
ARGAU-1i,8/9/2001,21:03,-44.45,-65.01,1029.6,395.1,8.97,8.44,33.48
ARGAU-1i,8/9/2001,21:13,-44.49,-65.04,1029.5,402.0,8.95,8.40,33.47
ARGAU-1i,8/9/2001,21:24,-44.53,-65.07,1029.6,412.0,8.87,8.32,33.45
ARGAU-1i,8/9/2001,21:34,-44.57,-65.11,1029.3,415.9,8.82,8.27,33.44
ARGAU-1i,8/9/2001,21:44,-44.61,-65.15,1029.3,409.7,8.82,8.25,33.46
ARGAU-1i,8/9/2001,21:54,-44.65,-65.19,1029.2,394.8,8.59,8.00,33.49
ARGAU-1i,8/9/2001,22:14,-44.72,-65.27,1029.1,393.0,8.48,7.95,33.50
ARGAU-1i,8/9/2001,22:24,-44.75,-65.31,1029.0,399.0,8.56,8.04,33.48
ARGAU-1i,8/9/2001,22:35,-44.8,-65.33,1028.9,401.3,8.61,8.06,33.47
ARGAU-1i,8/9/2001,22:45,-44.84,-65.34,1029.1,404.8,8.64,8.11,33.46
ARGAU-1i,8/9/2001,22:55,-44.89,-65.35,1028.9,404.8,8.65,8.13,33.46
ARGAU-1i,8/9/2001,23:05,-44.92,-65.35,1028.7,405.3,8.69,8.17,33.46
ARGAU-1i,8/9/2001,23:25,-44.99,-65.38,1028.5,407.1,8.70,8.18,33.45
ARGAU-1i,8/9/2001,23:35,-45.03,-65.41,1028.3,407.8,8.69,8.18,33.45
ARGAU-1i,8/9/2001,23:45,-45.06,-65.45,1028.2,408.6,8.67,8.17,33.44
ARGAU-1i,8/9/2001,23:56,-45.08,-65.49,1028.2,409.0,8.70,8.18,33.44
ARGAU-1i,8/10/2001,0:06,-45.11,-65.52,1028.2,409.0,8.70,8.20,33.44
ARGAU-1i,8/10/2001,0:16,-45.14,-65.56,1027.7,408.2,8.71,8.20,33.43
ARGAU-1i,8/10/2001,1:02,-45.15,-65.61,1027.0,407.7,8.67,8.21,33.42
ARGAU-1i,8/10/2001,1:13,-45.15,-65.62,1026.7,407.9,8.67,8.24,33.43
ARGAU-1i,8/10/2001,1:23,-45.15,-65.63,1026.7,407.5,8.68,8.21,33.43
ARGAU-1i,8/10/2001,1:33,-45.15,-65.66,1026.9,407.2,8.65,8.18,33.45
ARGAU-1i,8/10/2001,1:44,-45.17,-65.71,1026.5,407.2,8.64,8.16,33.46
ARGAU-1i,8/10/2001,1:54,-45.18,-65.74,1026.6,406.9,8.63,8.16,33.47
ARGAU-1i,8/10/2001,2:13,-45.22,-65.81,1026.8,405.2,8.61,8.13,33.47
ARGAU-1i,8/10/2001,2:23,-45.23,-65.85,1026.6,407.3,8.59,8.13,33.49
ARGAU-1i,8/10/2001,2:34,-45.24,-65.89,1026.4,405.0,8.64,8.17,33.48
ARGAU-1i,8/10/2001,2:44,-45.24,-65.93,1026.1,404.0,8.56,8.08,33.49
ARGAU-1i,8/10/2001,2:54,-45.25,-65.97,1025.6,405.0,8.60,8.12,33.49
ARGAU-1i,8/10/2001,3:04,-45.25,-66.01,1025.4,403.3,8.48,7.97,33.52
ARGAU-1i,8/10/2001,3:23,-45.24,-66.09,1025.3,406.0,8.34,7.89,33.55
ARGAU-1i,8/10/2001,3:34,-45.24,-66.13,1025.2,414.0,8.32,7.86,33.56
ARGAU-1i,8/10/2001,3:44,-45.24,-66.17,1025.0,408.1,8.41,8.02,33.54
ARGAU-1i,8/10/2001,3:54,-45.24,-66.21,1024.8,404.4,8.45,8.00,33.53
ARGAU-1i,8/10/2001,4:05,-45.25,-66.25,1024.8,406.6,8.35,7.88,33.56
ARGAU-1i,8/10/2001,4:15,-45.25,-66.29,1024.8,406.5,8.17,7.70,33.57
ARGAU-1i,8/10/2001,4:34,-45.27,-66.35,1025.0,408.6,8.21,7.79,33.55
ARGAU-1i,8/10/2001,4:45,-45.29,-66.39,1024.8,411.1,8.24,7.83,33.56
ARGAU-1i,8/10/2001,4:55,-45.31,-66.42,1024.6,415.5,8.28,7.87,33.57
ARGAU-1i,8/10/2001,5:05,-45.33,-66.45,1024.4,414.0,8.28,7.88,33.57
ARGAU-1i,8/10/2001,5:16,-45.35,-66.48,1024.1,416.0,8.32,7.92,33.56
ARGAU-1i,8/10/2001,5:26,-45.36,-66.51,1023.8,412.7,8.39,8.00,33.56
ARGAU-1i,8/10/2001,5:45,-45.4,-66.57,1023.6,426.5,8.41,8.00,33.57
ARGAU-1i,8/10/2001,5:55,-45.41,-66.61,1023.4,427.6,8.40,7.99,33.57
ARGAU-1i,8/10/2001,6:06,-45.43,-66.64,1023.2,435.4,8.38,7.96,33.57
ARGAU-1i,8/10/2001,6:16,-45.45,-66.68,1022.9,452.0,8.35,7.94,33.57
ARGAU-1i,8/10/2001,6:26,-45.46,-66.71,1022.9,449.8,8.33,7.91,33.56
ARGAU-1i,8/10/2001,6:37,-45.48,-66.75,1022.9,440.8,8.25,7.83,33.58
ARGAU-1i,8/10/2001,6:56,-45.51,-66.81,1022.2,452.1,8.17,7.75,33.58
ARGAU-1i,8/10/2001,7:06,-45.53,-66.84,1022.1,459.1,8.19,7.75,33.58
ARGAU-1i,8/10/2001,7:16,-45.55,-66.87,1022.0,456.6,8.11,7.66,33.58
ARGAU-1i,8/10/2001,7:27,-45.56,-66.91,1021.7,460.7,8.09,7.67,33.58
ARGAU-1i,8/10/2001,7:37,-45.58,-66.94,1021.5,466.8,8.10,7.68,33.58
ARGAU-1i,8/10/2001,7:47,-45.6,-66.97,1021.5,466.3,8.05,7.63,33.58
ARGAU-1i,8/10/2001,8:33,-45.68,-67.1,1020.7,455.6,7.99,7.58,33.58
ARGAU-1i,8/10/2001,8:43,-45.71,-67.11,1020.6,455.6,7.97,7.57,33.58
ARGAU-1i,8/10/2001,8:54,-45.73,-67.12,1020.4,460.3,7.95,7.52,33.58
ARGAU-1i,8/10/2001,9:04,-45.76,-67.13,1020.4,463.1,7.92,7.51,33.58
ARGAU-1i,8/10/2001,9:14,-45.79,-67.14,1020.3,461.9,7.85,7.41,33.58
ARGAU-1i,8/10/2001,9:25,-45.81,-67.14,1020.2,475.6,7.84,7.45,33.58
ARGAU-1i,8/10/2001,9:44,-45.83,-67.2,1019.5,479.0,7.71,7.30,33.58
ARGAU-1i,8/10/2001,9:54,-45.83,-67.23,1019.5,474.1,7.70,7.31,33.59
ARGAU-1i,8/10/2001,10:04,-45.84,-67.25,1019.7,470.9,7.70,7.31,33.58
ARGAU-1i,8/10/2001,10:15,-45.84,-67.28,1019.9,469.5,7.69,7.30,33.58
ARGAU-1i,8/10/2001,10:25,-45.84,-67.3,1020.2,466.5,7.67,7.26,33.56
ARGAU-1i,8/10/2001,10:35,-45.84,-67.33,1020.5,462.3,7.62,7.22,33.58
ARGAU-1i,8/12/2001,14:01,-46.12,-67.41,1003.9,452.5,7.49,7.00,33.58
ARGAU-1i,8/12/2001,14:11,-46.15,-67.41,1003.8,466.3,7.55,7.10,33.59
ARGAU-1i,8/12/2001,14:22,-46.19,-67.41,1003.6,461.0,7.55,7.07,33.57
ARGAU-1i,8/12/2001,14:32,-46.22,-67.41,1003.8,458.2,7.56,7.07,33.56
ARGAU-1i,8/12/2001,14:42,-46.26,-67.41,1003.9,461.4,7.56,7.10,33.57
ARGAU-1i,8/12/2001,14:53,-46.29,-67.4,1003.8,463.7,7.62,7.13,33.57
ARGAU-1i,8/12/2001,15:12,-46.33,-67.4,1004.1,448.1,7.55,7.04,33.57
ARGAU-1i,8/12/2001,15:22,-46.35,-67.4,1004.1,437.4,7.48,6.99,33.56
ARGAU-1i,8/12/2001,15:32,-46.37,-67.4,1004.0,440.1,7.55,7.03,33.57
ARGAU-1i,8/12/2001,15:42,-46.39,-67.4,1003.9,444.8,7.58,7.06,33.56
ARGAU-1i,8/12/2001,15:53,-46.41,-67.4,1003.8,432.7,7.56,7.04,33.54
ARGAU-1i,8/12/2001,16:03,-46.43,-67.4,1003.8,431.8,7.59,7.05,33.54
ARGAU-1i,8/12/2001,16:22,-46.44,-67.42,1003.4,431.9,7.56,6.99,33.53
ARGAU-1i,8/12/2001,16:32,-46.45,-67.44,1003.2,429.2,7.52,6.96,33.55
ARGAU-1i,8/12/2001,16:43,-46.46,-67.45,1003.1,429.9,7.52,6.95,33.55
ARGAU-1i,8/12/2001,16:53,-46.46,-67.45,1002.7,430.5,7.51,6.95,33.55
ARGAU-1i,8/12/2001,17:03,-46.46,-67.46,1002.3,431.9,7.49,6.91,33.53
ARGAU-1i,8/12/2001,17:14,-46.46,-67.46,1002.1,433.2,7.50,6.94,33.56
ARGAU-1i,8/12/2001,17:33,-46.46,-67.45,1001.9,427.1,7.55,6.97,33.56
ARGAU-1i,8/12/2001,17:43,-46.45,-67.44,1001.6,426.7,7.58,7.01,33.56
ARGAU-1i,8/12/2001,17:54,-46.45,-67.44,1001.5,425.7,7.62,7.04,33.56
ARGAU-1i,8/12/2001,18:04,-46.45,-67.43,1001.6,427.3,7.63,7.06,33.55
ARGAU-1i,8/12/2001,18:14,-46.45,-67.43,1001.5,429.8,7.61,7.04,33.55
ARGAU-1i,8/12/2001,18:24,-46.46,-67.4,1001.7,431.7,7.64,7.08,33.55
ARGAU-1i,8/12/2001,18:43,-46.49,-67.32,1001.6,423.2,7.68,7.12,33.55
ARGAU-1i,8/12/2001,18:53,-46.51,-67.28,1001.7,418.7,7.72,7.11,33.54
ARGAU-1i,8/12/2001,19:04,-46.53,-67.23,1001.5,413.0,7.62,6.96,33.53
ARGAU-1i,8/12/2001,19:14,-46.54,-67.19,1001.2,409.7,7.56,6.98,33.52
ARGAU-1i,8/12/2001,19:25,-46.55,-67.14,1001.0,421.6,7.69,7.12,33.54
ARGAU-1i,8/12/2001,19:35,-46.57,-67.09,1000.9,435.6,7.77,7.11,33.54
ARGAU-1i,8/12/2001,19:54,-46.59,-67.02,1000.9,421.9,7.90,7.35,33.52
ARGAU-1i,8/12/2001,20:04,-46.61,-66.97,1000.8,420.8,7.91,7.28,33.53
ARGAU-1i,8/12/2001,20:15,-46.63,-66.93,1000.8,419.0,7.81,7.22,33.53
ARGAU-1i,8/12/2001,20:25,-46.64,-66.89,1001.0,420.9,7.89,7.31,33.54
ARGAU-1i,8/12/2001,20:35,-46.66,-66.84,1000.8,425.1,7.91,7.34,33.54
ARGAU-1i,8/12/2001,20:45,-46.68,-66.8,1000.7,414.7,7.77,7.06,33.51
ARGAU-1i,8/12/2001,21:31,-46.76,-66.61,1000.8,381.1,6.77,6.05,33.30
ARGAU-1i,8/12/2001,21:42,-46.77,-66.57,1000.9,384.1,6.76,6.26,33.30
ARGAU-1i,8/12/2001,21:52,-46.79,-66.53,1000.9,392.5,7.31,6.76,33.39
ARGAU-1i,8/12/2001,22:02,-46.8,-66.49,1000.8,388.0,7.26,6.48,33.37
ARGAU-1i,8/12/2001,22:13,-46.82,-66.45,1001.0,377.9,6.80,6.14,33.29
ARGAU-1i,8/12/2001,22:23,-46.83,-66.41,1000.9,372.6,6.60,5.83,33.24
ARGAU-1i,8/12/2001,22:42,-46.85,-66.33,1000.9,374.8,6.46,5.84,33.22
ARGAU-1i,8/12/2001,22:53,-46.87,-66.29,1001.1,371.8,6.45,5.74,33.20
ARGAU-1i,8/12/2001,23:03,-46.88,-66.25,1001.3,374.2,6.38,5.82,33.19
ARGAU-1i,8/12/2001,23:13,-46.88,-66.2,1001.4,378.5,6.83,6.34,33.25
ARGAU-1i,8/12/2001,23:24,-46.88,-66.16,1001.6,383.5,7.29,6.77,33.32
ARGAU-1i,8/12/2001,23:34,-46.87,-66.11,1001.5,384.5,7.38,6.78,33.33
ARGAU-1i,8/12/2001,23:53,-46.87,-66.03,1001.5,391.2,7.64,7.06,33.39
ARGAU-1i,8/13/2001,0:03,-46.87,-65.99,1001.6,392.7,7.67,7.08,33.39
ARGAU-1i,8/13/2001,0:13,-46.87,-65.95,1001.6,389.2,7.64,7.00,33.35
ARGAU-1i,8/13/2001,0:23,-46.87,-65.91,1001.7,380.4,7.37,6.65,33.26
ARGAU-1i,8/13/2001,0:34,-46.87,-65.86,1001.8,373.0,6.96,6.22,33.18
ARGAU-1i,8/13/2001,0:44,-46.87,-65.82,1001.7,372.8,6.74,6.05,33.16
ARGAU-1i,8/13/2001,1:04,-46.87,-65.74,1001.6,374.8,6.71,6.14,33.17
ARGAU-1i,8/13/2001,1:14,-46.86,-65.71,1002.1,372.3,6.76,6.04,33.16
ARGAU-1i,8/13/2001,14:09,-47.77,-65.59,995.4,376.8,5.19,4.57,32.92
ARGAU-1i,8/13/2001,14:19,-47.81,-65.58,995.4,376.7,5.22,4.61,32.94
ARGAU-1i,8/13/2001,14:29,-47.84,-65.59,995.2,376.1,5.26,4.64,32.94
ARGAU-1i,8/13/2001,14:40,-47.87,-65.59,995.4,376.8,5.34,4.74,32.92
ARGAU-1i,8/13/2001,14:50,-47.91,-65.59,995.5,377.4,5.42,4.78,32.91
ARGAU-1i,8/13/2001,15:00,-47.94,-65.59,995.7,378.2,5.44,4.82,32.90
ARGAU-1i,8/13/2001,15:20,-48,-65.6,995.9,379.0,5.66,5.08,32.92
ARGAU-1i,8/13/2001,15:30,-48.03,-65.62,995.8,378.2,5.73,5.11,32.92
ARGAU-1i,8/13/2001,15:40,-48.06,-65.65,995.7,378.0,5.68,5.06,32.90
ARGAU-1i,8/13/2001,15:50,-48.09,-65.68,995.3,378.8,5.67,5.08,32.90
ARGAU-1i,8/13/2001,16:01,-48.11,-65.7,994.9,379.1,5.75,5.16,32.91
ARGAU-1i,8/13/2001,16:11,-48.14,-65.73,994.7,378.9,5.82,5.21,32.91
ARGAU-1i,8/13/2001,16:30,-48.19,-65.79,994.4,378.0,5.70,5.08,32.90
ARGAU-1i,8/13/2001,16:40,-48.22,-65.82,994.2,378.4,5.76,5.19,32.92
ARGAU-1i,8/13/2001,16:51,-48.25,-65.85,994.2,377.0,5.79,5.15,32.90
ARGAU-1i,8/13/2001,17:01,-48.27,-65.88,994.1,377.5,5.86,5.32,32.91
ARGAU-1i,8/13/2001,17:11,-48.3,-65.9,994.3,377.2,6.16,5.66,32.97
ARGAU-1i,8/13/2001,17:22,-48.32,-65.93,994.1,375.3,6.30,5.71,32.98
ARGAU-1i,8/13/2001,17:41,-48.37,-65.98,994.4,376.5,6.31,5.74,32.99
ARGAU-1i,8/13/2001,17:51,-48.39,-66.01,994.4,375.8,6.38,5.80,33.01
ARGAU-1i,8/13/2001,18:02,-48.41,-66.05,994.7,375.2,6.34,5.72,33.00
ARGAU-1i,8/13/2001,18:12,-48.41,-66.09,994.9,374.7,6.23,5.55,32.95
ARGAU-1i,8/13/2001,18:22,-48.42,-66.13,995.1,375.0,5.96,5.25,32.89
ARGAU-1i,8/13/2001,18:32,-48.43,-66.17,995.5,375.6,5.76,5.08,32.86
ARGAU-1i,8/13/2001,18:52,-48.44,-66.25,995.1,375.0,5.53,4.85,32.82
ARGAU-1i,8/13/2001,19:02,-48.45,-66.29,995.2,375.8,5.55,4.92,32.82
ARGAU-1i,8/13/2001,19:12,-48.45,-66.34,995.6,377.7,5.90,5.39,32.90
ARGAU-1i,8/13/2001,19:22,-48.46,-66.38,995.7,376.0,6.12,5.51,32.93
ARGAU-1i,8/13/2001,19:33,-48.47,-66.43,996.0,373.6,6.03,5.30,32.89
ARGAU-1i,8/13/2001,19:43,-48.48,-66.47,996.6,374.1,5.79,5.15,32.85
ARGAU-1i,8/13/2001,20:02,-48.52,-66.52,997.2,373.2,5.84,5.20,32.87
ARGAU-1i,8/13/2001,20:13,-48.55,-66.55,997.8,373.3,5.85,5.22,32.87
ARGAU-1i,8/13/2001,20:23,-48.57,-66.57,998.1,373.2,5.92,5.31,32.89
ARGAU-1i,8/13/2001,20:33,-48.6,-66.59,998.4,373.0,5.96,5.33,32.90
ARGAU-1i,8/13/2001,20:43,-48.62,-66.62,998.7,374.3,5.98,5.40,32.90
ARGAU-1i,8/13/2001,20:54,-48.65,-66.64,998.9,374.2,6.17,5.59,32.92
ARGAU-1i,8/13/2001,21:40,-48.75,-66.76,999.5,371.2,6.08,5.45,32.91
ARGAU-1i,8/13/2001,21:50,-48.78,-66.79,999.7,371.1,6.05,5.42,32.91
ARGAU-1i,8/13/2001,22:00,-48.8,-66.82,999.8,371.3,6.04,5.41,32.90
ARGAU-1i,8/13/2001,22:11,-48.82,-66.85,1000.0,370.5,6.04,5.41,32.90
ARGAU-1i,8/13/2001,22:21,-48.85,-66.87,1000.3,369.2,6.04,5.40,32.90
ARGAU-1i,8/13/2001,22:31,-48.87,-66.9,1000.4,369.6,6.08,5.51,32.92
ARGAU-1i,8/13/2001,22:51,-48.92,-66.95,1000.8,369.8,6.34,5.68,32.98
ARGAU-1i,8/13/2001,23:01,-48.94,-66.98,1001.0,368.2,6.14,5.44,32.93
ARGAU-1i,8/13/2001,23:11,-48.96,-67.01,1001.0,368.1,5.91,5.25,32.89
ARGAU-1i,8/13/2001,23:21,-48.99,-67.04,1001.2,366.4,5.81,5.11,32.87
ARGAU-1i,8/13/2001,23:32,-49.01,-67.06,1001.1,364.2,5.49,4.75,32.78
ARGAU-1i,8/13/2001,23:42,-49.04,-67.09,1001.3,363.9,5.22,4.50,32.78
ARGAU-1i,8/14/2001,0:01,-49.08,-67.15,1001.6,365.0,5.10,4.42,32.78
ARGAU-1i,8/14/2001,0:12,-49.11,-67.18,1001.8,365.8,5.16,4.53,32.78
ARGAU-1i,8/14/2001,0:22,-49.13,-67.21,1001.9,362.7,5.15,4.36,32.76
ARGAU-1i,8/14/2001,0:32,-49.16,-67.24,1001.8,367.7,4.79,4.13,32.75
ARGAU-1i,8/14/2001,0:42,-49.19,-67.27,1002.0,367.3,4.67,3.90,32.76
ARGAU-1i,8/14/2001,0:53,-49.21,-67.3,1002.2,369.0,4.50,3.78,32.80
ARGAU-1i,8/14/2001,1:12,-49.26,-67.36,1002.2,369.0,4.49,3.78,32.78
ARGAU-1i,8/14/2001,1:22,-49.28,-67.39,1002.1,369.1,4.37,3.62,32.77
ARGAU-1i,8/14/2001,1:33,-49.3,-67.41,1002.1,371.2,4.24,3.58,32.74
ARGAU-1i,8/14/2001,1:43,-49.32,-67.43,1002.4,371.6,4.27,3.64,32.76
ARGAU-1i,8/14/2001,1:53,-49.35,-67.43,1002.2,373.2,4.36,3.83,32.77
ARGAU-1i,8/14/2001,2:03,-49.37,-67.43,1002.4,371.2,4.59,4.02,32.86
ARGAU-1i,8/14/2001,2:23,-49.42,-67.43,1002.3,371.5,4.56,4.02,32.85
ARGAU-1i,8/14/2001,2:33,-49.44,-67.43,1002.4,370.5,4.74,4.20,32.90
ARGAU-1i,8/14/2001,2:43,-49.47,-67.43,1002.1,367.5,4.76,4.12,32.88
ARGAU-1i,8/14/2001,2:54,-49.49,-67.44,1002.0,367.3,4.59,3.97,32.80
ARGAU-1i,8/14/2001,3:04,-49.51,-67.44,1001.8,369.3,4.52,3.99,32.79
ARGAU-1i,8/14/2001,3:14,-49.54,-67.44,1001.9,368.7,4.64,4.09,32.83
ARGAU-1i,8/14/2001,3:33,-49.59,-67.45,1001.8,368.7,4.69,4.19,32.83
ARGAU-1i,8/14/2001,3:43,-49.61,-67.45,1001.9,368.6,4.83,4.34,32.90
ARGAU-1i,8/14/2001,3:54,-49.64,-67.45,1001.7,372.0,5.16,4.78,33.05
ARGAU-1i,8/14/2001,4:04,-49.67,-67.46,1002.0,368.1,5.35,4.77,33.10
ARGAU-1i,8/14/2001,4:15,-49.7,-67.46,1001.9,367.4,5.14,4.55,33.03
ARGAU-1i,8/14/2001,4:25,-49.72,-67.47,1001.9,368.2,4.99,4.45,32.97
ARGAU-1i,8/14/2001,5:36,-49.86,-67.6,1001.4,370.1,4.76,4.20,32.86
ARGAU-1i,8/14/2001,5:46,-49.88,-67.62,1001.6,369.9,4.98,4.46,32.98
ARGAU-1i,8/14/2001,5:57,-49.91,-67.65,1001.3,367.9,4.85,4.25,32.91
ARGAU-1i,8/14/2001,6:07,-49.93,-67.67,1001.2,365.7,5.06,4.19,32.86
ARGAU-1i,8/14/2001,6:43,-50.01,-67.76,1000.9,367.8,4.75,4.01,32.81
ARGAU-1i,8/14/2001,6:53,-50.03,-67.79,1000.6,368.1,4.57,3.88,32.74
ARGAU-1i,8/14/2001,7:03,-50.05,-67.81,1000.6,366.2,4.36,3.59,32.60
ARGAU-1i,8/14/2001,7:14,-50.07,-67.84,1000.4,367.1,4.21,3.51,32.48
ARGAU-1i,8/14/2001,7:24,-50.1,-67.87,1000.3,367.5,4.15,3.49,32.45
ARGAU-1i,8/14/2001,7:34,-50.12,-67.89,1000.0,368.2,4.32,3.67,32.58
ARGAU-1i,8/14/2001,7:53,-50.16,-67.94,999.6,365.7,4.27,3.58,32.52
ARGAU-1i,8/14/2001,8:03,-50.18,-67.97,999.6,366.6,4.37,3.74,32.60
ARGAU-1i,8/14/2001,8:14,-50.2,-67.99,999.3,368.3,4.53,3.90,32.72
ARGAU-1i,8/14/2001,8:24,-50.22,-68.02,999.2,368.3,4.58,4.02,32.79
ARGAU-1i,8/14/2001,8:34,-50.25,-68.05,999.2,369.0,4.73,4.16,32.87
ARGAU-1i,8/14/2001,8:45,-50.27,-68.07,999.1,369.6,4.82,4.24,32.90
ARGAU-1i,8/14/2001,9:04,-50.31,-68.12,999.0,370.5,5.04,4.44,33.01
ARGAU-1i,8/14/2001,9:14,-50.33,-68.15,999.0,370.4,5.08,4.47,33.02
ARGAU-1i,8/14/2001,9:24,-50.35,-68.18,998.8,371.0,5.13,4.54,33.03
ARGAU-1i,8/14/2001,9:35,-50.38,-68.21,998.9,371.3,5.20,4.59,33.01
ARGAU-1i,8/14/2001,9:45,-50.4,-68.24,998.6,372.6,5.25,4.62,32.98
ARGAU-1i,8/14/2001,9:55,-50.42,-68.27,998.6,373.0,5.23,4.62,32.97
ARGAU-1i,8/14/2001,10:15,-50.46,-68.32,998.3,372.4,5.26,4.64,33.04
ARGAU-1i,8/14/2001,10:25,-50.48,-68.35,998.1,367.8,5.28,4.66,32.98
ARGAU-1i,8/14/2001,10:35,-50.51,-68.37,998.1,367.9,5.26,4.61,32.90
ARGAU-1i,8/14/2001,10:45,-50.53,-68.4,998.1,371.2,5.31,4.74,32.96
ARGAU-1i,8/14/2001,10:56,-50.55,-68.43,997.8,374.9,5.41,4.76,32.98
ARGAU-1i,8/14/2001,11:06,-50.57,-68.46,997.7,370.4,5.29,4.63,32.92
ARGAU-1i,8/14/2001,11:25,-50.62,-68.51,997.7,375.3,5.49,4.90,33.02
ARGAU-1i,8/14/2001,11:36,-50.64,-68.54,997.2,375.8,5.54,4.91,33.05
ARGAU-1i,8/14/2001,11:46,-50.66,-68.57,997.2,372.6,5.51,4.87,33.04
ARGAU-1i,8/14/2001,11:56,-50.69,-68.59,997.3,370.1,5.47,4.83,33.01
ARGAU-1i,8/14/2001,12:07,-50.71,-68.62,997.4,369.7,5.41,4.81,32.98
ARGAU-1i,8/14/2001,12:17,-50.74,-68.65,996.9,372.5,5.48,4.90,33.00